virtualACA

Welcome To Calgary International Airport CYYC

Hub Roster

Pilot Domicile Rank
Ethan Title - ACA1641CanadaChief Pilot
Friedrich Haselgruber - ACA1760GermanyChief Pilot
Graham Dawson - ACA2317CanadaChief Pilot
Roger Godden - ACA2339CanadaChief Pilot
John Croxford - ACA2492United KingdomChief Pilot
Hamir Hamir - ACA2906CanadaFirst Officer
Jake Moerland - ACA3058CanadaFirst Officer
Iain Chilvers - ACA3155United KingdomNew Hire

Current Vatsim Weather


CYYC 251200Z 35014KT 15SM BKN140 BKN220 06/M04 A3009 RMK AC5CI2 SLP203
Calgary International Airport